Location: Baix
(44.7118°N, 4.7648°E)
Time: 14:58:53
(UTC+00:00)

Explorer 11/Cluster Stage 4 - Pass Details

Date: 03 December 2020
Orbit: 467 x 1258 km, 28.8° (Epoch: 14 January)

Event Time Altitude Azimuth Distance (km) Brightness Sun altitude
Rises 22:14:04 0° 250° (WSW) 3,951 - -62.5°
Reaches altitude 10° 22:18:09 10° 231° (SW) 2,844 - -63.0°
Maximum altitude 22:22:13 16° 195° (SSW) 2,234 - -63.5°
Drops below altitude 10° 22:25:52 10° 158° (SSE) 2,497 - -63.9°
Sets 22:29:07 0° 137° (SE) 3,263 - -64.2°
